Mobile, AL

11:04 PM CDT on September 28, 2016 (GMT -0500)
Mobile Regional

Weather History for KMOB - May, 2014

Change the Weather History Date:

Sunday, May 18, 2014

  Actual Average Record
Temperature  
Mean Temperature 69 °F 75 °F  
Max Temperature 83 °F 85 °F 96 °F (1962)
Min Temperature 55 °F 64 °F 44 °F (2011)
Cooling Degree Days 4 10  
Month to date cooling degree days 102 140  
Year to date cooling degree days 217 299  
Growing Degree Days 18 (Base 50)    
Moisture  
Dew Point 59 °F    
Average Humidity 70    
Maximum Humidity 100    
Minimum Humidity 39    
Precipitation  
Precipitation 0.00 in 0.17 in 6.30 in (2003)
Month to date precipitation 4.76 2.90  
Year to date precipitation 36.47 24.60  
Sea Level Pressure  
Sea Level Pressure 30.16 in    
Wind  
Wind Speed 4 mph (SSW)    
Max Wind Speed 15 mph    
Max Gust Speed 17 mph    
Visibility 10 miles    
Events      
T = Trace of Precipitation, MM = Missing Value Source: NWS Daily Summary

Daily Weather History Graph

Daily Weather History Graph

Search for Another Location

Airport or City:

Trip Planner

Search our weather history database for the weather conditions in past years. The results will help you decide how hot, cold, wet, or windy it might be!

Date:

Astronomy

May. 18, 2014 Rise Set
Actual Time 5:56 AM CDT 7:42 PM CDT
Civil Twilight 5:29 AM CDT 8:09 PM CDT
Nautical Twilight 4:57 AM CDT 8:41 PM CDT
Astronomical Twilight 4:24 AM CDT 9:15 PM CDT
Moon 11:35 PM CDT (5/18) 9:42 AM CDT (5/18)
Length of Visible Light 14h 39m
Length of Day
13h 46m
Waning Gibbous, 81% of the Moon is Illuminated
May 18
Waning Gibbous
May 21
Last Quarter
May 28
New
Jun 5
First Quarter
Jun 12
Full

Hourly Weather History & Observations

Time (CDT) Temp. Heat Index Dew Point Humidity Pressure Visibility Wind Dir Wind Speed Gust Speed Precip Events Conditions
12:56 AM 62.1 °F - 57.9 °F 86% 30.15 in 9.0 mi SSW 3.5 mph - N/A   Clear
1:56 AM 61.0 °F - 57.9 °F 90% 30.14 in 10.0 mi SSW 5.8 mph - N/A   Clear
2:56 AM 59.0 °F - 57.9 °F 96% 30.14 in 10.0 mi Calm Calm - N/A   Clear
3:56 AM 57.0 °F - 55.9 °F 96% 30.15 in 10.0 mi Calm Calm - N/A   Clear
4:56 AM 57.0 °F - 57.0 °F 100% 30.16 in 10.0 mi Calm Calm - N/A   Clear
5:56 AM 57.0 °F - 57.0 °F 100% 30.16 in 7.0 mi Calm Calm - N/A   Partly Cloudy
6:56 AM 60.1 °F - 59.0 °F 96% 30.17 in 7.0 mi Calm Calm - N/A   Partly Cloudy
7:56 AM 66.9 °F - 63.0 °F 87% 30.18 in 8.0 mi WNW 3.5 mph - N/A   Partly Cloudy
8:56 AM 71.1 °F - 63.0 °F 75% 30.20 in 10.0 mi NW 3.5 mph - N/A   Partly Cloudy
9:56 AM 73.9 °F - 63.0 °F 68% 30.20 in 10.0 mi North 4.6 mph - N/A   Scattered Clouds
10:56 AM 75.9 °F - 59.0 °F 56% 30.20 in 10.0 mi Calm Calm - N/A   Partly Cloudy
11:56 AM 79.0 °F - 59.0 °F 50% 30.18 in 10.0 mi SSW 8.1 mph - N/A   Partly Cloudy
12:56 PM 80.1 °F 80.1 °F 55.0 °F 42% 30.17 in 10.0 mi Variable 3.5 mph - N/A   Partly Cloudy
1:56 PM 81.0 °F 80.4 °F 53.1 °F 38% 30.16 in 10.0 mi SSE 3.5 mph - N/A   Partly Cloudy
2:56 PM 82.9 °F 82.0 °F 55.0 °F 38% 30.14 in 10.0 mi Variable 4.6 mph - N/A   Clear
3:56 PM 81.0 °F 81.9 °F 62.1 °F 52% 30.13 in 10.0 mi South 9.2 mph - N/A   Partly Cloudy
4:56 PM 80.1 °F 80.7 °F 59.0 °F 48% 30.13 in 10.0 mi SSW 11.5 mph - N/A   Clear
5:56 PM 77.0 °F - 59.0 °F 54% 30.14 in 10.0 mi South 13.8 mph - N/A   Clear
6:56 PM 73.9 °F - 60.1 °F 62% 30.13 in 10.0 mi South 8.1 mph - N/A   Clear
7:56 PM 70.0 °F - 62.1 °F 76% 30.14 in 10.0 mi SSW 5.8 mph - N/A   Clear
8:56 PM 68.0 °F - 62.1 °F 81% 30.15 in 10.0 mi South 4.6 mph - N/A   Clear
9:56 PM 66.9 °F - 61.0 °F 81% 30.16 in 10.0 mi South 3.5 mph - N/A   Clear
10:56 PM 62.1 °F - 60.1 °F 93% 30.17 in 10.0 mi Calm Calm - N/A   Clear
11:56 PM 63.0 °F - 61.0 °F 93% 30.16 in 10.0 mi Calm Calm - N/A   Clear